Date,TemperatureHighF,TemperatureAvgF,TemperatureLowF,DewpointHighF,DewpointAvgF,DewpointLowF,HumidityHigh,HumidityAvg,HumidityLow,PressureMaxIn,PressureMinIn,WindSpeedMaxMPH,WindSpeedAvgMPH,GustSpeedMaxMPH,PrecipitationSumIn
2013-3-1,34,31,27,31,26,21,91,83,73,29.99,29.83,5,2,10,0.02
2013-3-2,30,27,25,24,22,21,90,83,71,29.98,29.92,5,2,11,0.01
2013-3-3,29,26,24,23,20,18,90,79,65,30.03,29.94,8,4,16,0.01
2013-3-4,38,28,21,23,18,15,85,68,47,30.14,30.02,9,3,15,0.01
2013-3-5,49,37,19,30,19,14,90,51,26,30.09,29.70,5,2,11,0.01
2013-3-6,43,35,31,37,29,-100,100,83,64,30.12,29.69,5,0,9,0.56
2013-3-7,39,35,33,31,29,27,90,79,67,30.30,30.11,6,2,12,0.03
2013-3-8,37,33,26,29,27,23,89,78,69,30.42,30.29,8,2,15,0.01
2013-3-9,44,28,22,27,23,20,94,85,43,30.43,30.20,0,0,3,0.01
2013-3-10,58,43,36,35,30,26,79,62,34,30.20,30.03,2,0,6,0.01
2013-3-11,64,56,48,49,36,30,83,48,28,30.03,29.74,8,2,20,0.08
2013-3-12,53,41,37,49,34,28,90,78,65,30.03,29.78,10,4,18,0.15
2013-3-13,38,33,27,31,26,20,90,77,51,30.16,29.95,11,5,22,0.01
2013-3-14,40,31,25,22,19,17,75,63,45,30.25,30.14,10,5,19,0.01
2013-3-15,50,38,24,38,27,19,82,64,50,30.16,29.83,8,3,18,0.01
2013-3-16,43,39,35,39,36,32,94,91,82,29.98,29.64,6,1,12,0.03
2013-3-17,38,33,29,32,25,22,87,72,56,30.21,29.97,4,1,8,0.01
2013-3-18,42,36,31,36,29,-100,92,80,66,30.18,29.72,6,2,15,0.43
2013-3-19,48,40,31,42,28,18,94,64,35,30.00,29.71,17,7,32,0.17
2013-3-20,42,33,26,22,18,15,75,55,40,30.01,29.82,11,4,23,0.01
2013-3-21,29,25,18,20,14,9,86,65,48,29.93,29.88,9,4,17,0.00
2013-3-22,37,29,25,21,19,18,78,66,51,30.05,29.92,9,4,17,0.00
2013-3-23,48,33,19,27,22,17,91,66,36,30.05,29.99,7,1,14,0.00
2013-3-24,43,34,27,30,24,20,90,68,46,30.01,29.54,5,2,11,0.00
2013-3-25,36,33,31,34,31,28,94,92,79,29.75,29.47,4,1,10,0.46
2013-3-26,42,36,32,32,31,29,94,83,64,30.09,29.75,7,2,14,0.53
2013-3-27,44,37,32,32,28,25,92,72,49,30.18,30.09,9,4,16,0.03
2013-3-28,44,38,35,32,29,27,79,70,56,30.28,30.15,7,3,14,0.01
2013-3-29,53,43,35,34,28,23,86,60,33,30.29,30.17,8,2,15,0.00
2013-3-30,54,41,26,30,24,20,88,55,27,30.28,30.05,5,1,11,0.00
2013-3-31,50,45,39,46,36,-100,91,75,53,30.05,29.75,5,1,11,0.11